Location: Embarras
(53.3000°N, 116.9000°W)
Time: 10:12:28
(UTC+00:00)

DIWATA 2B (PO-101) - Visible Passes

Search period start: 30 November 2023 00:00
Search period end: 10 December 2023 00:00
Orbit: 579 x 591 km, 98.0° (Epoch: 29 November)

Date Brightness Start Highest point End Pass type
(mag) Time Alt. Az. Time Alt. Az. Time Alt. Az.
30 Nov ? 01:36:28 10° NNW 01:38:49 15° NW 01:41:10 10° W visible
01 Dec ? 01:43:08 10° NNW 01:45:09 13° NW 01:47:11 10° W visible
02 Dec ? 00:12:40 10° N 00:16:51 68° WNW 00:21:00 10° SSW visible
02 Dec ? 01:49:52 10° NNW 01:51:29 12° NW 01:53:05 10° WNW visible
03 Dec ? 00:19:06 10° N 00:23:14 60° WNW 00:27:20 10° SSW visible
03 Dec ? 01:56:45 10° NW 01:57:48 11° NW 01:58:50 10° WNW visible
04 Dec ? 00:25:32 10° N 00:29:37 52° WNW 00:33:40 10° SW visible
05 Dec ? 00:31:58 10° N 00:35:59 46° WNW 00:39:59 10° SW visible
06 Dec ? 00:38:23 10° N 00:42:20 41° WNW 00:46:15 10° SW visible
07 Dec ? 00:44:50 10° N 00:48:41 36° WNW 00:52:30 10° SW visible
08 Dec ? 00:51:16 10° N 00:55:00 32° WNW 00:58:44 10° SW visible
09 Dec ? 00:57:43 10° N 01:01:20 29° WNW 01:04:56 10° WSW visible
